Whiteman AFB, MO

5:14 PM CDT on October 19, 2017 (GMT -0500)
Whiteman Air Force Base

Weather History for KSZL - February, 2014

Change the Weather History Date:

Sunday, February 23, 2014

  Actual Average Record
Temperature  
Mean Temperature 29 °F -  
Max Temperature 36 °F 44 °F 68 °F (2017)
Min Temperature 22 °F 27 °F 7 °F (2015)
Degree Days  
Heating Degree Days 36    
Moisture  
Dew Point 15 °F    
Average Humidity 59    
Maximum Humidity 76    
Minimum Humidity 42    
Precipitation  
Precipitation 0.00 in - - ()
Sea Level Pressure  
Sea Level Pressure 30.28 in    
Wind  
Wind Speed 13 mph (NNE)    
Max Wind Speed 18 mph    
Max Gust Speed 21 mph    
Visibility 10 miles    
Events      
Averages and records for this station are not official NWS values.
T = Trace of Precipitation, MM = Missing Value Source: NWS Daily Summary

Daily Weather History Graph

Daily Weather History Graph

Search for Another Location

Airport or City:

Trip Planner

Search our weather history database for the weather conditions in past years. The results will help you decide how hot, cold, wet, or windy it might be!

Date:

Astronomy

Feb. 23, 2014 Rise Set
Actual Time 6:54 AM CST 6:00 PM CST
Civil Twilight 6:27 AM CST 6:27 PM CST
Nautical Twilight 5:57 AM CST 6:58 PM CST
Astronomical Twilight 5:26 AM CST 7:29 PM CST
Moon 1:51 AM CST (2/23) 12:05 PM CST (2/23)
Length of Visible Light 11h 59m
Length of Day
11h 05m
Last Quarter, 38% of the Moon is Illuminated
Feb 23
Last Quarter
Mar 1
New
Mar 8
First Quarter
Mar 16
Full
Mar 23
Last Quarter

Hourly Weather History & Observations

Time (CST) Temp. Windchill Dew Point Humidity Pressure Visibility Wind Dir Wind Speed Gust Speed Precip Events Conditions
12:58 AM 28.6 °F 17.7 °F 21.0 °F 73% 30.11 in 10.0 mi NNE 13.8 mph - N/A   Clear
1:58 AM 28.0 °F 16.1 °F 20.1 °F 72% 30.14 in 10.0 mi NNE 16.1 mph - N/A   Clear
2:58 AM 26.6 °F 15.7 °F 17.6 °F 69% 30.15 in 10.0 mi NNE 12.7 mph - N/A   Clear
3:58 AM 25.7 °F 12.3 °F 8.6 °F 48% 30.18 in 10.0 mi NNE 18.4 mph - N/A   Partly Cloudy
4:58 AM 24.4 °F 11.5 °F 9.9 °F 54% 30.21 in 10.0 mi NE 16.1 mph - N/A   Scattered Clouds
5:58 AM 24.4 °F 12.4 °F 11.5 °F 58% 30.22 in 10.0 mi NNE 13.8 mph - N/A   Mostly Cloudy
6:58 AM 24.4 °F 12.4 °F 11.8 °F 59% 30.22 in 10.0 mi NE 13.8 mph - N/A   Mostly Cloudy
7:58 AM 25.2 °F 14.4 °F 12.2 °F 58% 30.23 in 10.0 mi NE 11.5 mph - N/A   Overcast
8:58 AM 27.5 °F 16.8 °F 14.2 °F 57% 30.28 in 10.0 mi NE 12.7 mph - N/A   Mostly Cloudy
9:58 AM 29.5 °F 18.4 °F 16.0 °F 57% 30.29 in 10.0 mi NNE 15.0 mph - N/A   Scattered Clouds
10:58 AM 31.1 °F 21.9 °F 14.4 °F 50% 30.30 in 10.0 mi NE 11.5 mph 20.7 mph N/A   Mostly Cloudy
11:58 AM 33.3 °F 24.6 °F 14.2 °F 46% 30.31 in 10.0 mi NNE 11.5 mph - N/A   Overcast
12:58 PM 34.2 °F 26.2 °F 15.1 °F 46% 30.31 in 10.0 mi NE 10.4 mph - N/A   Overcast
1:58 PM 36.3 °F 27.5 °F 15.3 °F 42% 30.31 in 10.0 mi NNE 13.8 mph 20.7 mph N/A   Scattered Clouds
2:58 PM 36.5 °F 28.2 °F 15.4 °F 42% 30.30 in 10.0 mi NNE 12.7 mph - N/A   Partly Cloudy
3:04 PM 35.6 °F 26.2 °F 15.8 °F 44% 30.26 in 10.0 mi North 15.0 mph - N/A   Partly Cloudy
3:58 PM 35.1 °F 25.5 °F 14.5 °F 43% 30.31 in 10.0 mi North 15.0 mph - N/A   Scattered Clouds
4:58 PM 32.0 °F 22.5 °F 16.0 °F 52% 30.33 in 10.0 mi NNE 12.7 mph - N/A   Overcast
5:58 PM 29.1 °F 19.4 °F 16.9 °F 60% 30.33 in 10.0 mi North 11.5 mph - N/A   Mostly Cloudy
6:58 PM 24.8 °F 16.9 °F 16.2 °F 70% 30.36 in 10.0 mi North 6.9 mph - N/A   Clear
7:58 PM 25.0 °F 16.3 °F 16.3 °F 70% 30.37 in 10.0 mi North 8.1 mph - N/A   Mostly Cloudy
8:58 PM 23.5 °F 14.5 °F 16.2 °F 73% 30.37 in 10.0 mi NNE 8.1 mph - N/A   Partly Cloudy
9:58 PM 22.8 °F 13.6 °F 15.8 °F 74% 30.38 in 10.0 mi North 8.1 mph - N/A   Clear
10:58 PM 24.1 °F 19.7 °F 16.2 °F 72% 30.38 in 10.0 mi North 3.5 mph - N/A   Clear
11:58 PM 22.3 °F 14.9 °F 15.8 °F 76% 30.38 in 10.0 mi North 5.8 mph - N/A   Clear